SUPERBIRD-B3

Last updated on Tue Oct 21 2025 00:02:54 GMT+0000 (Coordinated Universal Time)

1 43271U 18033A 25293.58382488 .00000000 00000+0 00000+0 0 9997 2 43271 0.0190 222.3685 0000935 342.0407 197.0707 1.00271303 27652
UTC large
Height (km)
Speed (km/s)
/
Latitude / Longitude
Inclination (degrees)
Orbital Period (minutes)
Azimuth
Elevation
Range (km)
Doppler Factor

Next 0 passes for location: London (51.5072 / 0.1276)

Sorry there are no passes over London.